User: anonymous   Login
Location: Unspecified
(0.0000°N, 0.0000°E)
Time: 23:53:15
(UTC+01:00)
Language:

Centaur AC-64 - Orbit

View from above orbital plane
View from above orbital plane
View from above satellite
View from above satellite

Ground track
Ground track

The orbit data is extracted from the following two-line orbital elements,

1 15874U 85055B   18015.55608931 +.00000703 +00000-0 +33157-3 0  9992
2 15874 023.2395 330.8716 6558536 051.9580 350.8524 03.19697556337253
Epoch (UTC): 15 January 2018 13:20:46
Eccentricity: 0.6558536
inclination: 23.2395°
perigee height: 320 km
apogee height: 25852 km
right ascension of ascending node: 330.8716°
argument of perigee: 51.9580°
revolutions per day: 3.19697556
mean anomaly at epoch: 350.8524°
orbit number at epoch: 33725

The dashed part of the orbit path shows where the satellite is in the earth's shadow,  

DLR